Portada
METAR-TAF:

METAR-TAF

Aeropuertos :

Base Aérea de Valencia-Bétera

Valencia, España

latitud: 39-37-26N, longitud: 0-28-26W, altitud: 127 m

Observación

El informe se hizo hace 16 minutos, a las 05:00 UTC
Viento 3 kt del norte-noroeste, variando entre oeste-noroeste y norte-noreste
Temperatura 19°C
Humedad 88%
Presión 1020 hPa
Visibilidad 10 km o más

METAR: LEBT 240500Z AUTO 33003KT 290V020 9999 ////// 19/17 Q1020

Hora: 07:16 (05:16 UTC)


TAF: falta

Observaciones y pronósticos meteorológicos de más de 4000 aeropuertos (mensajes METAR y TAF).

Los puntos amarillos y rojos representan las estaciones disponibles.

Ponga el ratón en el punto deseado para ver el nombre de la estación.

Haga clic para ver las observaciones y los pronósticos meteorológicos.

Para cambiar el mapa : haga clic en los botones verdes con una cruz de color negro para hacer un zoom, en el botón verde con un guión para alejar o en las flechas verdes para mapas adyacentes.


METAR-TAF: